Time,TemperatureF,DewpointF,PressureIn,WindDirection,WindDirectionDegrees,WindSpeedMPH,WindSpeedGustMPH,Humidity,HourlyPrecipIn,Conditions,Clouds,dailyrainin,SoftwareType,DateUTC
2013-03-28 00:07:00,31.4,24.0,30.32,NW,314,0.0,0.0,73,0.00,,,0.00,weatherlink.com 1.10,2013-03-28 05:07:00,
2013-03-28 00:22:00,30.8,23.0,30.31,NW,314,0.0,0.0,74,0.00,,,0.00,weatherlink.com 1.10,2013-03-28 05:22:00,
2013-03-28 00:37:00,30.3,23.0,30.32,NW,314,0.0,0.0,74,0.00,,,0.00,weatherlink.com 1.10,2013-03-28 05:37:00,
2013-03-28 00:52:00,29.7,23.0,30.32,NW,314,0.0,0.0,77,0.00,,,0.00,weatherlink.com 1.10,2013-03-28 05:52:00,
2013-03-28 01:07:00,29.0,23.0,30.32,NW,314,0.0,0.0,78,0.00,,,0.00,weatherlink.com 1.10,2013-03-28 06:07:00,
2013-03-28 01:22:00,28.5,22.0,30.32,NW,314,0.0,0.0,78,0.00,,,0.00,weatherlink.com 1.10,2013-03-28 06:22:00,
2013-03-28 01:37:00,28.1,23.0,30.32,NW,314,0.0,0.0,81,0.00,,,0.00,weatherlink.com 1.10,2013-03-28 06:37:00,
2013-03-28 01:52:00,29.5,23.0,30.32,NW,314,0.0,2.0,78,0.00,,,0.00,weatherlink.com 1.10,2013-03-28 06:52:00,
2013-03-28 02:07:00,30.7,24.0,30.32,NW,314,1.0,2.0,75,0.00,,,0.00,weatherlink.com 1.10,2013-03-28 07:07:00,
2013-03-28 02:22:00,30.3,23.0,30.32,SW,215,2.0,6.0,75,0.00,,,0.00,weatherlink.com 1.10,2013-03-28 07:22:00,
2013-03-28 02:37:00,28.4,23.0,30.32,SW,215,0.0,3.0,80,0.00,,,0.00,weatherlink.com 1.10,2013-03-28 07:37:00,
2013-03-28 02:52:00,28.1,23.0,30.32,SW,215,0.0,0.0,80,0.00,,,0.00,weatherlink.com 1.10,2013-03-28 07:52:00,
2013-03-28 03:07:00,28.2,23.0,30.32,SW,215,0.0,2.0,80,0.00,,,0.00,weatherlink.com 1.10,2013-03-28 08:07:00,
2013-03-28 03:22:00,28.1,23.0,30.32,SW,215,1.0,3.0,80,0.00,,,0.00,weatherlink.com 1.10,2013-03-28 08:22:00,
2013-03-28 03:52:00,27.6,23.0,30.32,SW,215,0.0,0.0,82,0.00,,,0.00,weatherlink.com 1.10,2013-03-28 08:52:00,
2013-03-28 04:07:00,27.3,23.0,30.32,SW,215,0.0,0.0,83,0.00,,,0.00,weatherlink.com 1.10,2013-03-28 09:07:00,
2013-03-28 04:22:00,27.3,23.0,30.32,SW,215,0.0,0.0,84,0.00,,,0.00,weatherlink.com 1.10,2013-03-28 09:22:00,
2013-03-28 04:37:00,27.6,23.0,30.32,SW,215,0.0,0.0,84,0.00,,,0.00,weatherlink.com 1.10,2013-03-28 09:37:00,
2013-03-28 04:52:00,27.2,23.0,30.32,SW,215,0.0,0.0,83,0.00,,,0.00,weatherlink.com 1.10,2013-03-28 09:52:00,
2013-03-28 05:07:00,27.1,23.0,30.32,SW,215,0.0,0.0,84,0.00,,,0.00,weatherlink.com 1.10,2013-03-28 10:07:00,
2013-03-28 05:22:00,27.5,24.0,30.32,SW,215,0.0,1.0,85,0.00,,,0.00,weatherlink.com 1.10,2013-03-28 10:22:00,
2013-03-28 05:37:00,27.5,23.0,30.32,SW,215,0.0,1.0,83,0.00,,,0.00,weatherlink.com 1.10,2013-03-28 10:37:00,
2013-03-28 05:52:00,27.2,23.0,30.33,SW,215,0.0,0.0,84,0.00,,,0.00,weatherlink.com 1.10,2013-03-28 10:52:00,
2013-03-28 06:07:00,27.2,23.0,30.33,SW,215,0.0,1.0,83,0.00,,,0.00,weatherlink.com 1.10,2013-03-28 11:07:00,
2013-03-28 06:22:00,27.3,23.0,30.33,SW,215,0.0,1.0,82,0.00,,,0.00,weatherlink.com 1.10,2013-03-28 11:22:00,
2013-03-28 06:37:00,27.1,22.0,30.34,SW,215,0.0,1.0,82,0.00,,,0.00,weatherlink.com 1.10,2013-03-28 11:37:00,
2013-03-28 06:52:00,27.1,22.0,30.34,SW,215,0.0,0.0,82,0.00,,,0.00,weatherlink.com 1.10,2013-03-28 11:52:00,
2013-03-28 07:07:00,27.0,23.0,30.34,SW,215,0.0,0.0,83,0.00,,,0.00,weatherlink.com 1.10,2013-03-28 12:07:00,
2013-03-28 07:22:00,28.1,24.0,30.35,SW,215,0.0,1.0,83,0.00,,,0.00,weatherlink.com 1.10,2013-03-28 12:22:00,
2013-03-28 07:37:00,29.0,24.0,30.35,SW,215,0.0,0.0,80,0.00,,,0.00,weatherlink.com 1.10,2013-03-28 12:37:00,
2013-03-28 07:52:00,30.8,25.0,30.35,SW,215,0.0,1.0,78,0.00,,,0.00,weatherlink.com 1.10,2013-03-28 12:52:00,
2013-03-28 08:07:00,31.4,25.0,30.35,SW,215,1.0,2.0,77,0.00,,,0.00,weatherlink.com 1.10,2013-03-28 13:07:00,
2013-03-28 08:22:00,32.6,26.0,30.35,SW,215,2.0,4.0,76,0.00,,,0.00,weatherlink.com 1.10,2013-03-28 13:22:00,
2013-03-28 08:37:00,33.8,27.0,30.36,WNW,298,3.0,5.0,75,0.00,,,0.00,weatherlink.com 1.10,2013-03-28 13:37:00,
2013-03-28 08:52:00,34.9,27.0,30.36,NW,311,4.0,7.0,73,0.00,,,0.00,weatherlink.com 1.10,2013-03-28 13:52:00,
2013-03-28 09:07:00,35.8,27.0,30.35,WNW,297,2.0,7.0,71,0.00,,,0.00,weatherlink.com 1.10,2013-03-28 14:07:00,
2013-03-28 09:22:00,36.8,27.0,30.35,WNW,301,4.0,7.0,69,0.00,,,0.00,weatherlink.com 1.10,2013-03-28 14:22:00,
2013-03-28 09:37:00,37.7,28.0,30.36,SW,225,2.0,8.0,67,0.00,,,0.00,weatherlink.com 1.10,2013-03-28 14:37:00,
2013-03-28 09:53:00,38.8,27.0,30.36,West,274,3.0,8.0,64,0.00,,,0.00,weatherlink.com 1.10,2013-03-28 14:53:00,
2013-03-28 10:08:00,40.1,27.0,30.36,SW,234,5.0,6.0,61,0.00,,,0.00,weatherlink.com 1.10,2013-03-28 15:08:00,
2013-03-28 10:23:00,41.0,26.0,30.35,WSW,246,2.0,8.0,55,0.00,,,0.00,weatherlink.com 1.10,2013-03-28 15:23:00,
2013-03-28 10:38:00,41.8,26.0,30.36,WNW,295,3.0,7.0,53,0.00,,,0.00,weatherlink.com 1.10,2013-03-28 15:38:00,
2013-03-28 10:53:00,42.5,26.0,30.36,WNW,284,4.0,7.0,52,0.00,,,0.00,weatherlink.com 1.10,2013-03-28 15:53:00,
2013-03-28 11:08:00,43.2,25.0,30.35,NNW,345,3.0,8.0,49,0.00,,,0.00,weatherlink.com 1.10,2013-03-28 16:08:00,
2013-03-28 11:23:00,43.2,24.0,30.35,NW,306,6.0,12.0,47,0.00,,,0.00,weatherlink.com 1.10,2013-03-28 16:23:00,
2013-03-28 11:38:00,43.5,24.0,30.35,West,264,4.0,10.0,47,0.00,,,0.00,weatherlink.com 1.10,2013-03-28 16:38:00,
2013-03-28 11:53:00,44.0,24.0,30.35,SW,230,1.0,9.0,46,0.00,,,0.00,weatherlink.com 1.10,2013-03-28 16:53:00,
2013-03-28 12:08:00,44.4,24.0,30.35,West,260,4.0,8.0,45,0.00,,,0.00,weatherlink.com 1.10,2013-03-28 17:08:00,
2013-03-28 12:23:00,45.1,25.0,30.34,North,359,3.0,10.0,45,0.00,,,0.00,weatherlink.com 1.10,2013-03-28 17:23:00,
2013-03-28 12:38:00,44.3,23.0,30.34,NW,305,1.0,9.0,44,0.00,,,0.00,weatherlink.com 1.10,2013-03-28 17:38:00,
2013-03-28 12:53:00,46.2,25.0,30.34,WSW,238,8.0,9.0,43,0.00,,,0.00,weatherlink.com 1.10,2013-03-28 17:53:00,
2013-03-28 13:08:00,46.0,24.0,30.33,NNW,342,4.0,8.0,43,0.00,,,0.00,weatherlink.com 1.10,2013-03-28 18:08:00,
2013-03-28 13:23:00,46.2,25.0,30.33,WNW,302,3.0,11.0,43,0.00,,,0.00,weatherlink.com 1.10,2013-03-28 18:23:00,
2013-03-28 13:38:00,46.5,26.0,30.33,WNW,297,3.0,10.0,45,0.00,,,0.00,weatherlink.com 1.10,2013-03-28 18:38:00,
2013-03-28 13:53:00,46.7,26.0,30.32,West,270,5.0,13.0,44,0.00,,,0.00,weatherlink.com 1.10,2013-03-28 18:53:00,
2013-03-28 14:08:00,47.0,26.0,30.32,NW,315,6.0,13.0,45,0.00,,,0.00,weatherlink.com 1.10,2013-03-28 19:08:00,
2013-03-28 14:23:00,48.1,27.0,30.31,North,349,7.0,11.0,44,0.00,,,0.00,weatherlink.com 1.10,2013-03-28 19:23:00,
2013-03-28 14:38:00,47.3,26.0,30.31,WSW,251,5.0,9.0,44,0.00,,,0.00,weatherlink.com 1.10,2013-03-28 19:38:00,
2013-03-28 14:53:00,48.3,27.0,30.30,NW,312,3.0,10.0,43,0.00,,,0.00,weatherlink.com 1.10,2013-03-28 19:53:00,
2013-03-28 15:08:00,48.3,27.0,30.29,NW,308,6.0,9.0,43,0.00,,,0.00,weatherlink.com 1.10,2013-03-28 20:08:00,
2013-03-28 15:38:00,48.2,26.0,30.28,SSW,213,5.0,10.0,42,0.00,,,0.00,weatherlink.com 1.10,2013-03-28 20:38:00,
2013-03-28 15:53:00,48.3,25.0,30.28,North,351,7.0,11.0,41,0.00,,,0.00,weatherlink.com 1.10,2013-03-28 20:53:00,
2013-03-28 16:08:00,49.0,27.0,30.28,WSW,237,7.0,10.0,42,0.00,,,0.00,weatherlink.com 1.10,2013-03-28 21:08:00,
2013-03-28 16:23:00,49.4,26.0,30.28,NNW,338,2.0,9.0,40,0.00,,,0.00,weatherlink.com 1.10,2013-03-28 21:23:00,
2013-03-28 16:38:00,49.0,25.0,30.28,NNW,337,4.0,9.0,40,0.00,,,0.00,weatherlink.com 1.10,2013-03-28 21:38:00,
2013-03-28 16:53:00,48.7,26.0,30.27,WSW,237,4.0,11.0,41,0.00,,,0.00,weatherlink.com 1.10,2013-03-28 21:53:00,
2013-03-28 17:08:00,48.9,26.0,30.27,NNW,343,8.0,8.0,41,0.00,,,0.00,weatherlink.com 1.10,2013-03-28 22:08:00,
2013-03-28 17:23:00,48.5,26.0,30.27,NW,305,5.0,11.0,41,0.00,,,0.00,weatherlink.com 1.10,2013-03-28 22:23:00,
2013-03-28 17:38:00,48.5,26.0,30.27,NW,305,2.0,8.0,42,0.00,,,0.00,weatherlink.com 1.10,2013-03-28 22:38:00,
2013-03-28 17:53:00,48.8,26.0,30.27,North,358,3.0,10.0,41,0.00,,,0.00,weatherlink.com 1.10,2013-03-28 22:53:00,
2013-03-28 18:08:00,48.4,26.0,30.27,NW,315,3.0,6.0,42,0.00,,,0.00,weatherlink.com 1.10,2013-03-28 23:08:00,
2013-03-28 18:23:00,47.8,26.0,30.27,WNW,301,4.0,7.0,43,0.00,,,0.00,weatherlink.com 1.10,2013-03-28 23:23:00,
2013-03-28 18:38:00,47.1,27.0,30.27,NW,314,1.0,5.0,45,0.00,,,0.00,weatherlink.com 1.10,2013-03-28 23:38:00,
2013-03-28 18:53:00,46.4,26.0,30.27,NW,310,2.0,3.0,45,0.00,,,0.00,weatherlink.com 1.10,2013-03-28 23:53:00,
2013-03-28 19:09:00,45.6,26.0,30.27,NW,310,0.0,2.0,47,0.00,,,0.00,weatherlink.com 1.10,2013-03-29 00:09:00,
2013-03-28 19:23:00,44.8,27.0,30.28,NW,310,0.0,1.0,50,0.00,,,0.00,weatherlink.com 1.10,2013-03-29 00:23:00,
2013-03-28 19:38:00,44.1,26.0,30.28,NW,310,0.0,1.0,50,0.00,,,0.00,weatherlink.com 1.10,2013-03-29 00:38:00,
2013-03-28 19:54:00,43.5,26.0,30.29,NW,310,0.0,3.0,51,0.00,,,0.00,weatherlink.com 1.10,2013-03-29 00:54:00,
2013-03-28 20:09:00,42.9,27.0,30.29,NW,322,2.0,4.0,53,0.00,,,0.00,weatherlink.com 1.10,2013-03-29 01:09:00,
2013-03-28 20:24:00,42.7,27.0,30.29,NNW,344,3.0,4.0,54,0.00,,,0.00,weatherlink.com 1.10,2013-03-29 01:24:00,
2013-03-28 20:39:00,42.4,27.0,30.29,North,350,3.0,3.0,54,0.00,,,0.00,weatherlink.com 1.10,2013-03-29 01:39:00,
2013-03-28 20:54:00,42.3,27.0,30.29,North,350,0.0,3.0,54,0.00,,,0.00,weatherlink.com 1.10,2013-03-29 01:54:00,
2013-03-28 21:09:00,41.9,27.0,30.29,North,350,1.0,1.0,55,0.00,,,0.00,weatherlink.com 1.10,2013-03-29 02:09:00,
2013-03-28 21:24:00,41.4,27.0,30.30,NNE,28,1.0,4.0,57,0.00,,,0.00,weatherlink.com 1.10,2013-03-29 02:24:00,
2013-03-28 21:39:00,40.3,27.0,30.30,NNE,29,1.0,3.0,59,0.00,,,0.00,weatherlink.com 1.10,2013-03-29 02:39:00,
2013-03-28 21:54:00,39.1,26.0,30.30,NNE,29,0.0,2.0,59,0.00,,,0.00,weatherlink.com 1.10,2013-03-29 02:54:00,
2013-03-28 22:09:00,36.8,26.0,30.31,SSE,155,0.0,5.0,66,0.00,,,0.00,weatherlink.com 1.10,2013-03-29 03:09:00,
2013-03-28 22:24:00,36.2,26.0,30.30,SSE,155,0.0,0.0,66,0.00,,,0.00,weatherlink.com 1.10,2013-03-29 03:24:00,
2013-03-28 22:39:00,36.7,25.0,30.30,SSE,155,0.0,1.0,62,0.00,,,0.00,weatherlink.com 1.10,2013-03-29 03:39:00,
2013-03-28 22:54:00,37.9,25.0,30.30,SSE,155,1.0,2.0,61,0.00,,,0.00,weatherlink.com 1.10,2013-03-29 03:54:00,
2013-03-28 23:09:00,37.8,26.0,30.30,SSE,155,2.0,2.0,62,0.00,,,0.00,weatherlink.com 1.10,2013-03-29 04:09:00,
2013-03-28 23:24:00,37.7,26.0,30.30,SSE,155,0.0,0.0,62,0.00,,,0.00,weatherlink.com 1.10,2013-03-29 04:24:00,
2013-03-28 23:39:00,37.1,26.0,30.30,SSE,155,0.0,1.0,64,0.00,,,0.00,weatherlink.com 1.10,2013-03-29 04:39:00,
2013-03-28 23:54:00,36.3,26.0,30.30,SSE,155,0.0,1.0,66,0.00,,,0.00,weatherlink.com 1.10,2013-03-29 04:54:00,